Regional Weather Roundup
Issued by NWS Grand Forks, ND

Current Version | Previous Version | Text Only | Print | Product List | Glossary On
Versions: 1 2 3 4 5 6 7 8 9 10 11 12 13 14 15 16 17 18 19 20 21 22 23 24 25 26 27 28 29 30 31 32 33 34 35 36 37 38 39 40 41 42 43 44 45 46 47 48 49 50
000
ASUS43 KFGF 312031
RWRFGF
PRAIRIE TO PINES  WEATHER ROUNDUP
NATIONAL WEATHER SERVICE EASTERN NORTH DAKOTA/GRAND FORKS ND
300 PM CDT FRI OCT 31 2014

 **SATELLITE DATA USED TO AUGMENT SKY COVER AT AUTOMATED STATIONS**
 *****  WEATHER ACROSS EASTERN NORTH DAKOTA  *****

CITY           SKY/WX    TMP DP  RH WIND       PRES   REMARKS
GRAND FORKS    MOSUNNY   38  20  48 S12G20    30.48F
GRAND FRKS AFB SUNNY     39  18  43 S15       30.47F
GRAND FRKS NWS   N/A     37 N/A N/A S18         N/A
DEVILS LAKE    SUNNY     37  16  41 S20       30.36F
FARGO          SUNNY     39  20  46 S10       30.50F
WAHPETON ARPT  CLEAR     37  19  48 SE8       30.50F
$$

 ***** WEATHER ACROSS CENTRAL AND WESTERN NORTH DAKOTA  *****

CITY           SKY/WX    TMP DP  RH WIND       PRES   REMARKS
BISMARCK       SUNNY     39  15  37 S23G30    30.31F
MINOT          MOSUNNY   38  13  35 SE25G32   30.23F
JAMESTOWN      SUNNY     37  16  42 S16G23    30.41F
MINOT AFB      MOSUNNY   40  15  36 S23G31    30.22F
GARRISON         N/A     39  21  48 S20G31    30.23F
WILLISTON      SUNNY     46  26  45 SE18G29   30.07F
DICKINSON      SUNNY     44  22  41 SE25G38   30.09F
HETTINGER      SUNNY     43  18  36 SE26G41   30.14F
$$

 *****  OTHER AIRPORT OBSERVATIONS IN OUR AREA  *****

CITY           SKY/WX    TMP DP  RH WIND       PRES   REMARKS
WALHALLA         N/A     39  18  41 S15       30.42F
GRAFTON AIRPOR FAIR      37  18  44 S14       30.46F
VALLEY CITY AR FAIR      37  18  44 S10       30.43F
CANDO          FAIR      37  16  41 S16G25    30.36F
CAVALIER APRT  FAIR      37  18  44 S10       30.44F
GWINNER        CLEAR     39  23  52 SE12      30.46F
SHEYENNE NWR     N/A     39  20  46 S8        29.95
ROLLA          FAIR      36  12  38 S23G29    30.31F
 ***** THE ABOVE OBSERVATIONS ARE NON NWS ARE NOT QUALITY
       CONTROLLED AND MAY MIS-REPORT RAIN FOR SNOW...
$$

  *****  WEATHER ACROSS NORTHERN MINNESOTA  *****

CITY           SKY/WX    TMP DP  RH WIND       PRES   REMARKS
FLAG ISLAND    SUNNY     34  25  69 S12       30.48F
WARROAD        SUNNY     37  23  56 S3        30.49F
ROSEAU         SUNNY     39  21  48 S9        30.48F
HALLOCK        SUNNY     39  19  45 S16       30.46F
THF RVR FALLS  SUNNY     37  19  48 SW8       30.49F
BAUDETTE       SUNNY     37  18  46 SW6       30.49F
WASKISH        SUNNY     36  23  60 CALM      30.50F
CROOKSTON      SUNNY     37  21  52 S10       30.49F
STEPHEN NDAWN    N/A     39  19  45 S13         N/A
GREENBUSH NDAW   N/A     37  19  48 S10         N/A
$$
  *****  WEATHER ACROSS CENTRAL AND WEST MINNESOTA  *****

CITY           SKY/WX    TMP DP  RH WIND       PRES   REMARKS
FOSSTON        SUNNY     41  19  42 CALM      30.49S
BEMIDJI        SUNNY     37  15  40 SE5       30.48F
PARK RAPIDS    SUNNY     36  15  42 S3        30.47F
ELBOW LAKE     FAIR      37  21  52 S6        30.49F
WADENA         SUNNY     37  18  44 S6        30.48F
DETROIT LAKES  SUNNY     37  19  48 S7        30.49F
MOORHEAD       SUNNY     39  18  41 SE8       30.50F
FERGUS FALLS   SUNNY     37  18  44 S6        30.51F
MORRIS MN      SUNNY     37  21  52 S5        30.49F
STAPLES        SUNNY     37  12  35 SE3       30.49F
$$
  *****  WEATHER ELSEWHERE ACROSS MINNESOTA  *****

CITY           SKY/WX    TMP DP  RH WIND       PRES   REMARKS
DULUTH         MOSUNNY   38  15  39 NW7       30.46F
INTRNTL FALLS  SUNNY     37  17  44 NW6       30.49F
ELY            SUNNY     34  18  51 NW6       30.47F
CLOQUET        SUNNY     37  12  35 NW7       30.47F
WHEATON        SUNNY     36  19  51 SE6       30.52F
BRAINERD       SUNNY     36  14  40 CALM      30.51F
HIBBING        SUNNY     38  14  37 NW7       30.48F
ALEXANDRIA     SUNNY     37  17  44 VRB3      30.50F
SAINT CLOUD    SUNNY     41  15  35 N7        30.51F
MINNEAPOLIS    SUNNY     39  16  39 N9        30.51F
$$

  *****  WEATHER ACROSS SOUTH DAKOTA  *****

CITY           SKY/WX    TMP DP  RH WIND       PRES   REMARKS
SIOUX FALLS    MOSUNNY   40  19  43 CALM      30.49F
BROOKINGS      NOT AVBL
WATERTOWN      SUNNY     37  18  46 SE8       30.46F
HURON          SUNNY     39  17  41 S12       30.47F
SISSETON         N/A     37  20  50 S5        30.49F
ABERDEEN       SUNNY     41  16  36 S14       30.47F
MITCHELL       SUNNY     39  18  42 SE8       30.49F
PIERRE         PTSUNNY   40  13  33 SE21      30.36F
MOBRIDGE       PTSUNNY   40  15  36 S24G32    30.32F
RAPID CITY     MOSUNNY   47  30  51 S24G33    30.15F
$$

  *****  SOME WEATHER IN NEARBY STATES *****

CITY           SKY/WX    TMP DP  RH WIND       PRES   REMARKS
GLASGOW MT     PTSUNNY   51  33  50 SE21G29   29.87F
GREAT FALLS MT PTSUNNY   70  32  24 S20       29.72F
CHEYENNE WY    PTSUNNY   48  28  46 S16G26    30.18F
SCOTTSBLUFF NE SUNNY     54  32  43 S21G31    30.19F
OMAHA NE       MOSUNNY   43  17  35 VRB7      30.52F
DES MOINES IA  SUNNY     43  18  36 N14       30.47F
DAVENPORT IA   SUNNY     43  18  36 N25G31    30.35R
CHICAGO IL     CLOUDY    39  23  52 N26G37    30.19R
EAU CLAIRE WI  MOSUNNY   40  18  41 N14       30.47S
LA CROSSE WI   MOSUNNY   43  20  39 N15       30.43F
$$

  *****  SOME NATIONAL WEATHER *****

CITY           SKY/WX    TMP DP  RH WIND       PRES   REMARKS
LA GUARDIA NY  CLOUDY    55  37  50 E15       29.90F
RALEIGH NC     CLOUDY    59  41  51 N6        29.83F
ATLANTA GA     PTSUNNY   60  41  49 NW14      29.88F
NEW ORLEANS LA MOSUNNY   75  42  30 NW17G23   30.00F
OKLAHOMA CITY  SUNNY     59  31  34 N13       30.38F
ALBUQUERQUE NM MOSUNNY   65  29  25 S7        30.28F
SALT LAKE CITY MOSUNNY   74  20  13 S20G30    29.90F
LOS ANGELES CA CLOUDY    66  57  72 VRB5      29.91F
BOISE ID       CLOUDY    59  38  45 NE6       29.80S
SEATTLE WA     CLOUDY    51  49  92 SW7       29.83S
$$

*** WEATHER ACROSS MANITOBA...SASKATCHEWAN AND ONTARIO ***
                ***ONTARIO***

CITY           SKY/WX    TMP DP  RH WIND       PRES   REMARKS
GERALDTON      FLURRIES  25  19  80 NW7       30.41S WCI  17
THUNDER BAY    MOSUNNY   37  18  44 NW8       30.46F
SIOUX LOOKOUT  MOSUNNY   32  21  64 NW6       30.47
TORONTO        LGT RAIN  43  41  93 E9        29.91R
BIG TROUT LK   SUNNY     28  21  74 W9G20     30.36F WCI  20
PICKLE LAKE    PTSUNNY   28  19  69 W8        30.43F WCI  20
DRYDEN         SUNNY     34  19  55 W8        30.46F
KENORA         MOSUNNY   34  21  60 SW8       30.48F
$$
                *** MANITOBA***

CITY           SKY/WX    TMP DP  RH WIND       PRES   REMARKS
BRANDON        PTSUNNY   41  12  30 S15G24    30.31F
DAUPHIN        SUNNY     37  19  48 S9G21     30.26F
ISLAND LAKE    MOSUNNY   32  25  74 S12G18    30.36S WCI  23
PILOT MOUND      N/A     37  14  38 S21G28      N/A
THE PAS        CLOUDY    36  23  60 S14G21    30.10F
THOMPSON       MOSUNNY   37  19  48 S14G20    30.14F
WINNIPEG       PTSUNNY   37  19  48 S17       30.45F
LYNN LAKE      SUNNY     36  18  48 S12G17    29.96F
CHURCHILL      PTSUNNY   30  23  74 W7        30.09S WCI  23
GILLAM         SUNNY     37  18  44 SW17G24   30.17F
$$
                ***SASKATCHEWAN***

CITY           SKY/WX    TMP DP  RH WIND       PRES   REMARKS
ESTEVAN        CLOUDY    41  23  48 SE22G31   30.10F
KINDERSLEY     PTSUNNY   50  36  57 S16G23    29.69F
LLOYDMINSTER   PTSUNNY   46  34  61 SE14G22   29.63
PRINCE ALBERT  PTSUNNY   39  28  65 S18G24    29.88F
REGINA         PTSUNNY   41  28  60 SE25G37   29.96F
YORKTON        CLOUDY    34  23  64 SE18G30   30.09F WCI  23
N. BATTLEFORD  SUNNY     48  36  61 SE22G29   29.73F
LA RONGE       CLOUDY    34  28  80 S14G22    29.84F WCI  24
SASKATOON      PTSUNNY   45  32  61 S24G31    29.82F
SWIFT CURRENT  SUNNY     50  34  53 S20       29.76R
$$
NOTE: THESE ARE AUTOMATED STATIONS WITH LIMITED QUALITY CONTROL
      "FAIR" INDICATES FEW OR NO CLOUDS BELOW 12,000 FEET WITH NO
      SIGNIFICANT WEATHER AND/OR OBSTRUCTIONS TO VISIBILITY.
      SKY/WX - SKY CONDITION AND SIGNIFICANT WEATHER.
      TMP - AIR TEMPERATURE.    DP   - DEWPOINT TEMPERATURE.
      RH  - RELATIVE HUMIDITY.  PRES - PRESSURE.
      HX  - HEAT INDEX.         WCI  - WIND CHILL INDEX.
$



USA.gov is the U.S. government's official web portal to all federal, state and local government web resources and services.